Location: *
(40.7873°S, 98.7174°E)
Time: 09:15:50
(UTC+00:00)

Meteor 2-3 Rocket - Pass Details

Date: 24 May 2022
Orbit: 841 x 886 km, 81.2° (Epoch: 04 July)

Event Time Altitude Azimuth Distance (km) Brightness Sun altitude
Rises 11:01:11 0° 8° (N) 3,387 7.0 -9.7°
Reaches altitude 10° 11:03:38 10° 13° (NNE) 2,461 6.2 -10.1°
Maximum altitude 11:09:00 50° 86° (E) 1,078 3.9 -11.1°
Drops below altitude 10° 11:14:28 10° 160° (SSE) 2,507 5.8 -12.1°
Sets 11:16:58 0° 165° (SSE) 3,456 6.6 -12.5°
